• In Hungary
  • List of Countries
  • For 7 days
  • Water Temperature
  • Satellite Maps
  • Weather Map
  • News
  • Weather Widgets
  • user-avatar
    Login

    Hourly Weather Podobreevo

    Today, 24 June, Sunday

    Time Temperature Precipitation Wind Pressure Humidity
    00:00 +22°C° 0 mm 5 mps 739 mmHg 76%
    01:00 +21°C° 0 mm 4 mps 739 mmHg 76%
    02:00 +21°C° 0 mm 4 mps 739 mmHg 77%
    03:00 +21°C° 0 mm 4 mps 738 mmHg 75%
    04:00 +21°C° 0 mm 4 mps 738 mmHg 76%
    05:00 +21°C° 0 mm 4 mps 738 mmHg 77%
    06:00 +21°C° 0 mm 4 mps 738 mmHg 78%
    07:00 +22°C° 0 mm 5 mps 738 mmHg 74%
    08:00 +23°C° 0 mm 5 mps 738 mmHg 71%
    09:00 +25°C° 0 mm 5 mps 738 mmHg 67%
    10:00 +25°C° 0 mm 5 mps 739 mmHg 66%
    11:00 +26°C° 0 mm 5 mps 739 mmHg 64%
    12:00 +27°C° 0 mm 4 mps 739 mmHg 63%
    13:00 +27°C° 0.2 mm 4 mps 739 mmHg 64%
    14:00 +27°C° 0.2 mm 4 mps 739 mmHg 65%
    15:00 +27°C° 0.2 mm 3 mps 740 mmHg 67%
    16:00 +25°C° 1 mm 4 mps 740 mmHg 74%
    17:00 +22°C° 1 mm 4 mps 740 mmHg 82%
    18:00 +20°C° 1 mm 4 mps 740 mmHg 89%
    19:00 +19°C° 1.1 mm 4 mps 741 mmHg 91%
    20:00 +18°C° 1.1 mm 4 mps 741 mmHg 93%
    21:00 +17°C° 1.1 mm 3 mps 741 mmHg 95%
    22:00 +16°C° 0.6 mm 3 mps 741 mmHg 95%
    23:00 +16°C° 0.6 mm 3 mps 742 mmHg 95%

    Tomorrow, 25 June, Monday

    Time Temperature Precipitation Wind Pressure Humidity
    00:00 +14°C° 0.6 mm 3 mps 742 mmHg 95%
    01:00 +13°C° 0.1 mm 3 mps 742 mmHg 95%
    02:00 +13°C° 0.1 mm 3 mps 743 mmHg 95%
    03:00 +12°C° 0.1 mm 3 mps 743 mmHg 95%
    04:00 +12°C° 0 mm 3 mps 743 mmHg 93%
    05:00 +12°C° 0 mm 4 mps 744 mmHg 92%
    06:00 +12°C° 0 mm 4 mps 744 mmHg 90%
    07:00 +14°C° 0 mm 4 mps 744 mmHg 85%
    08:00 +15°C° 0 mm 4 mps 745 mmHg 79%
    09:00 +18°C° 0 mm 3 mps 745 mmHg 74%
    10:00 +19°C° 0 mm 3 mps 745 mmHg 69%
    11:00 +20°C° 0 mm 3 mps 745 mmHg 64%
    12:00 +21°C° 0 mm 3 mps 746 mmHg 59%
    13:00 +22°C° 0 mm 3 mps 746 mmHg 58%
    14:00 +22°C° 0 mm 3 mps 746 mmHg 57%
    15:00 +24°C° 0 mm 3 mps 746 mmHg 56%
    16:00 +23°C° 0 mm 2 mps 746 mmHg 58%
    17:00 +23°C° 0 mm 2 mps 746 mmHg 61%
    18:00 +23°C° 0 mm 2 mps 746 mmHg 64%
    19:00 +20°C° 0 mm 2 mps 746 mmHg 68%
    20:00 +19°C° 0 mm 2 mps 747 mmHg 73%
    21:00 +17°C° 0 mm 2 mps 747 mmHg 78%
    22:00 +16°C° 0 mm 2 mps 747 mmHg 79%
    23:00 +15°C° 0 mm 2 mps 747 mmHg 81%

    Day after tomorrow, 26 June, Tuesday

    Time Temperature Precipitation Wind Pressure Humidity
    00:00 +15°C° 0 mm 2 mps 747 mmHg 83%
    01:00 +14°C° 0 mm 2 mps 748 mmHg 84%
    02:00 +14°C° 0 mm 2 mps 748 mmHg 86%
    03:00 +13°C° 0 mm 2 mps 748 mmHg 88%
    04:00 +14°C° 0 mm 2 mps 748 mmHg 86%
    05:00 +15°C° 0 mm 2 mps 748 mmHg 85%
    06:00 +15°C° 0 mm 2 mps 749 mmHg 84%
    07:00 +17°C° 0 mm 2 mps 749 mmHg 79%
    08:00 +19°C° 0 mm 2 mps 749 mmHg 74%
    09:00 +21°C° 0 mm 3 mps 749 mmHg 69%
    10:00 +22°C° 0 mm 3 mps 749 mmHg 65%
    11:00 +24°C° 0 mm 3 mps 749 mmHg 61%
    12:00 +25°C° 0 mm 3 mps 749 mmHg 57%
    13:00 +25°C° 0 mm 2 mps 748 mmHg 56%
    14:00 +26°C° 0 mm 2 mps 748 mmHg 55%
    15:00 +26°C° 0 mm 2 mps 748 mmHg 54%
    16:00 +26°C° 0 mm 2 mps 748 mmHg 58%
    17:00 +26°C° 0 mm 2 mps 748 mmHg 61%
    18:00 +27°C° 0 mm 2 mps 747 mmHg 65%
    19:00 +25°C° 0 mm 2 mps 747 mmHg 68%
    20:00 +23°C° 0 mm 2 mps 747 mmHg 72%
    21:00 +20°C° 0 mm 2 mps 747 mmHg 76%
    22:00 +19°C° 0 mm 2 mps 747 mmHg 77%
    23:00 +19°C° 0 mm 3 mps 747 mmHg 77%

    27 June, Wednesday

    Time Temperature Precipitation Wind Pressure Humidity
    00:00 +18°C° 0 mm 3 mps 747 mmHg 77%
    01:00 +17°C° 0 mm 3 mps 747 mmHg 79%
    02:00 +17°C° 0 mm 3 mps 747 mmHg 80%
    03:00 +17°C° 0 mm 3 mps 747 mmHg 82%
    04:00 +17°C° 0 mm 3 mps 747 mmHg 81%
    05:00 +17°C° 0 mm 4 mps 747 mmHg 81%
    06:00 +18°C° 0 mm 4 mps 747 mmHg 81%
    07:00 +19°C° 0 mm 4 mps 747 mmHg 78%
    08:00 +21°C° 0 mm 4 mps 747 mmHg 75%
    09:00 +23°C° 0 mm 5 mps 747 mmHg 73%
    10:00 +25°C° 0 mm 4 mps 747 mmHg 70%
    11:00 +26°C° 0 mm 4 mps 747 mmHg 68%
    12:00 +27°C° 0 mm 4 mps 747 mmHg 66%
    13:00 +28°C° 0 mm 4 mps 747 mmHg 65%
    14:00 +28°C° 0 mm 4 mps 747 mmHg 64%
    15:00 +29°C° 0 mm 4 mps 747 mmHg 63%
    16:00 +28°C° 0.2 mm 3 mps 747 mmHg 66%
    17:00 +28°C° 0.2 mm 3 mps 747 mmHg 69%
    18:00 +28°C° 0.2 mm 3 mps 746 mmHg 72%
    19:00 +26°C° 0.3 mm 3 mps 747 mmHg 77%
    20:00 +25°C° 0.3 mm 2 mps 747 mmHg 82%
    21:00 +23°C° 0.3 mm 2 mps 747 mmHg 86%
    22:00 +21°C° 0.1 mm 2 mps 747 mmHg 88%
    23:00 +21°C° 0.1 mm 2 mps 747 mmHg 90%

    28 June, Thursday

    Time Temperature Precipitation Wind Pressure Humidity
    00:00 +20°C° 0.1 mm 2 mps 747 mmHg 91%
    01:00 +20°C° 0 mm 2 mps 748 mmHg 92%
    02:00 +19°C° 0 mm 2 mps 748 mmHg 93%
    03:00 +19°C° 0 mm 2 mps 748 mmHg 94%
    04:00 +19°C° 0 mm 3 mps 748 mmHg 93%
    05:00 +20°C° 0 mm 3 mps 748 mmHg 92%
    06:00 +20°C° 0 mm 3 mps 748 mmHg 91%
    07:00 +21°C° 0 mm 3 mps 748 mmHg 85%
    08:00 +24°C° 0 mm 3 mps 748 mmHg 79%
    09:00 +25°C° 0 mm 3 mps 748 mmHg 74%
    10:00 +26°C° 0 mm 4 mps 748 mmHg 70%
    11:00 +28°C° 0 mm 4 mps 748 mmHg 66%
    12:00 +29°C° 0 mm 4 mps 748 mmHg 62%
    13:00 +29°C° 0 mm 4 mps 748 mmHg 61%
    14:00 +29°C° 0 mm 4 mps 747 mmHg 60%
    15:00 +30°C° 0 mm 4 mps 747 mmHg 59%
    16:00 +29°C° 0 mm 4 mps 747 mmHg 62%
    17:00 +29°C° 0 mm 4 mps 747 mmHg 66%
    18:00 +29°C° 0 mm 3 mps 747 mmHg 69%
    19:00 +27°C° 0 mm 3 mps 747 mmHg 73%
    20:00 +25°C° 0 mm 3 mps 747 mmHg 76%
    21:00 +24°C° 0 mm 3 mps 747 mmHg 80%
    22:00 +22°C° 0 mm 3 mps 747 mmHg 81%
    23:00 +21°C° 0 mm 3 mps 746 mmHg 82%

    29 June, Friday

    Time Temperature Precipitation Wind Pressure Humidity
    00:00 +20°C° 0 mm 3 mps 746 mmHg 83%
    01:00 +20°C° 0 mm 3 mps 746 mmHg 84%
    02:00 +19°C° 0 mm 3 mps 746 mmHg 86%
    03:00 +18°C° 0 mm 3 mps 747 mmHg 88%
    04:00 +19°C° 0 mm 3 mps 746 mmHg 86%
    05:00 +19°C° 0 mm 4 mps 746 mmHg 85%
    06:00 +19°C° 0 mm 4 mps 746 mmHg 83%
    07:00 +21°C° 0 mm 4 mps 746 mmHg 80%
    08:00 +22°C° 0 mm 5 mps 746 mmHg 77%
    09:00 +25°C° 0 mm 5 mps 746 mmHg 74%
    10:00 +26°C° 0.3 mm 5 mps 745 mmHg 72%
    11:00 +27°C° 0.3 mm 5 mps 745 mmHg 70%
    12:00 +28°C° 0.3 mm 6 mps 745 mmHg 68%
    13:00 +28°C° 0.5 mm 5 mps 745 mmHg 68%
    14:00 +29°C° 0.5 mm 5 mps 745 mmHg 67%
    15:00 +29°C° 0.5 mm 5 mps 745 mmHg 67%
    16:00 +28°C° 0 mm 5 mps 744 mmHg 68%
    17:00 +28°C° 0 mm 5 mps 744 mmHg 70%
    18:00 +28°C° 0 mm 5 mps 743 mmHg 71%
    19:00 +26°C° 0.3 mm 4 mps 743 mmHg 75%
    20:00 +25°C° 0.3 mm 4 mps 744 mmHg 78%
    21:00 +24°C° 0.3 mm 3 mps 744 mmHg 81%
    22:00 +22°C° 1.2 mm 4 mps 743 mmHg 85%
    23:00 +21°C° 1.2 mm 4 mps 743 mmHg 88%
    Show more